Wind_Speed
2 2 3 3 4 3 3 4 4 3 3 4 4 4 4 4 4 4 4 4 4 5 5 5 5 5 5 5 6 6 6 6 7 7 7 7 7 7 7 7 8 8 8
2 3 3 4 3 4 4 4 4 4 4 5 5 5 5 5 5 5 5 5 5 5 6 6 7 7 7 7 7 7 7 7 8 8 8 8 9 9 9 9 9 9 9
3 3 4 4 4 4 5 5 5 5 5 6 6 6 6 6 6 6 6 6 6 6 7 7 8 8 8 8 8 8 9 9 9 10 10 10 10 10 10 11 11 11 11
3 4 5 5 5 4 5 6 7 6 6 6 6 7 7 8 8 7 8 8 8 8 8 9 9 9 9 9 10 10 11 11 11 11 11 11 12 12 12 12 12 12 13
4 5 6 6 6 5 5 6 7 7 8 8 8 8 9 9 10 9 9 10 10 11 10 10 11 11 11 11 11 11 12 12 12 12 13 13 13 13 13 13 14 14 15
3 4 6 6 6 6 5 6 7 8 8 8 9 9 10 10 11 11 11 11 12 13 12 12 12 13 12 12 12 12 12 13 13 14 14 14 15 15 15 15 15 15 16
2 3 5 6 6 6 6 6 7 7 8 9 9 10 11 12 12 12 12 13 14 14 14 15 14 14 14 14 14 14 14 15 15 16 16 16 16 16 17 17 17 17 17
2 2 2 4 6 7 7 7 8 8 9 9 10 11 12 12 12 12 13 14 14 15 16 16 17 17 17 16 16 16 16 16 17 18 18 18 18 18 18 19 19 19 19
2 2 3 3 4 5 7 8 9 9 10 11 11 12 12 12 13 13 14 14 15 16 16 17 18 19 18 18 18 18 18 18 18 19 19 19 20 20 20 20 20 21 21
3 3 3 3 4 4 6 8 9 10 11 12 13 14 14 15 15 15 15 15 16 16 17 18 18 18 19 19 19 19 19 19 19 19 20 20 21 22 22 22 22 22 22
5 5 4 5 5 6 6 7 8 10 12 13 14 15 15 16 16 16 16 17 18 18 18 18 18 19 19 20 20 21 21 21 21 21 22 22 22 23 23 23 23 23 24
6 6 6 6 6 7 7 8 9 10 11 12 13 15 15 15 16 17 17 18 19 20 20 19 19 19 20 21 21 22 22 22 22 22 23 24 24 24 24 24 24 24 25
8 8 8 7 7 8 9 9 10 10 11 12 13 14 15 16 17 17 18 19 20 20 21 21 21 21 21 22 22 24 24 24 24 24 25 25 25 26 26 26 26 26 26
9 9 10 9 9 10 10 10 10 10 11 12 13 14 15 16 17 18 19 20 20 20 21 22 22 22 23 23 23 24 25 25 26 26 26 26 27 26 27 27 28 28 29
10 11 11 11 11 11 12 11 11 11 12 12 13 14 15 17 18 19 20 21 21 21 22 23 23 24 24 24 25 24 25 25 26 27 27 27 28 28 28 29 29 29 30
11 11 12 12 12 12 12 13 12 12 13 14 14 15 17 17 18 19 20 21 22 22 22 23 24 25 24 24 25 25 25 25 25 26 27 28 28 29 29 29 30 30 30
11 12 12 13 13 12 13 14 14 14 15 15 16 18 18 18 19 19 20 21 23 23 24 24 25 25 26 25 25 25 26 26 26 26 27 27 28 29 29 30 30 30 30
12 13 13 13 13 13 13 15 15 16 16 16 17 18 19 19 20 21 21 21 22 23 23 24 25 26 26 26 26 26 26 27 27 27 27 28 29 29 29 30 29 30 31
14 13 14 14 13 14 15 16 16 17 17 17 18 18 19 20 20 21 22 22 23 24 24 24 24 25 26 27 27 27 27 27 27 28 28 29 29 29 29 30 29 30 31
16 15 15 15 15 15 17 17 17 18 18 18 19 20 20 21 21 22 22 23 24 24 24 24 23 25 26 26 26 27 27 27 28 29 29 29 29 29 30 30 30 30 30
18 16 16 16 17 17 18 19 19 19 20 20 21 22 22 22 21 22 22 23 24 24 24 25 25 25 26 26 26 27 27 26 27 28 28 29 30 30 30 31 31 31 30
19 18 18 18 18 19 20 21 22 22 22 23 24 24 24 23 23 23 23 23 24 24 25 25 26 26 27 27 27 27 27 27 28 28 29 29 30 31 31 31 31 31 31
21 20 20 20 20 21 22 23 24 24 24 25 25 25 25 25 25 25 25 25 25 25 25 25 26 26 27 27 27 27 28 28 28 29 30 30 31 31 32 32 32 32 32
23 23 23 22 23 23 24 25 25 26 26 26 27 27 27 27 27 27 26 26 27 27 27 26 26 26 27 27 27 28 28 28 28 29 30 30 31 32 33 33 33 34 34
26 25 25 25 25 25 26 27 27 27 27 27 28 28 28 28 28 27 26 27 27 27 27 27 27 27 27 28 28 28 29 29 29 30 30 31 32 33 34 34 34 34 34
28 27 27 27 27 28 28 29 29 28 28 29 29 30 29 29 29 28 27 27 28 28 28 28 28 28 28 28 29 29 29 29 29 30 31 32 32 33 33 33 33 34 34
Wind_Direction
227 227 220 221 219 222 225 224 218 215 229 228 228 223 223 229 233 228 230 236 236 242 246 246 246 247 254 260 258 257 258 257 257 261 263 266 270 275 278 280 284 287 289
227 228 231 224 219 223 228 227 227 230 240 242 240 235 232 241 242 243 243 247 249 252 254 255 257 257 260 263 262 262 263 264 265 264 265 267 270 273 277 279 282 284 286
237 230 233 234 227 228 234 234 233 240 246 245 243 244 243 250 254 259 257 255 257 259 259 259 260 262 265 267 266 265 263 264 266 267 267 268 270 273 276 279 281 281 283
248 246 240 240 239 245 248 245 246 249 247 247 248 252 252 254 260 264 264 264 262 261 261 261 263 265 269 271 270 267 265 266 268 267 268 269 270 274 276 278 280 281 282
247 251 249 244 246 252 257 257 255 254 252 255 258 260 262 261 263 264 267 269 266 265 265 265 266 268 271 273 277 271 268 269 270 270 271 271 274 276 277 278 279 280 280
249 249 252 246 246 250 254 261 265 257 254 258 261 264 267 269 269 268 267 269 269 267 265 267 268 270 272 274 275 273 272 272 272 272 271 272 275 275 275 277 279 280 282
278 253 249 246 248 252 256 263 267 261 260 259 263 266 268 269 270 272 270 270 271 269 267 268 268 271 272 273 274 274 273 273 273 272 272 273 274 276 277 277 277 280 281
343 321 271 257 254 255 259 264 265 263 267 267 267 266 268 269 271 276 275 273 271 269 269 269 270 272 272 272 274 274 273 274 273 272 274 274 274 275 277 277 277 279 280
17 1 328 299 273 265 264 266 268 270 270 269 268 267 268 272 272 275 277 276 274 272 271 270 271 271 272 271 272 274 273 274 274 274 276 276 276 276 276 277 278 279 280
21 6 341 322 307 295 283 274 271 272 271 270 270 271 271 271 272 275 275 276 277 274 271 271 272 272 272 272 272 272 272 272 273 274 276 277 278 278 278 277 277 278 280
17 2 343 335 319 308 301 294 287 280 274 271 272 273 272 272 273 275 276 276 277 276 274 275 275 272 272 273 272 272 272 272 273 275 276 277 278 278 278 279 278 278 279
360 352 346 338 331 322 311 304 301 294 284 278 276 275 274 274 276 276 276 277 279 278 277 277 277 274 273 274 273 273 273 274 275 276 277 278 278 277 277 278 278 277 278
350 341 335 332 330 330 322 313 309 305 297 288 282 279 278 277 277 278 277 277 279 279 277 276 277 275 276 276 276 275 274 274 275 275 277 278 278 277 277 277 277 278 279
340 339 337 333 332 330 326 319 315 310 303 296 290 286 284 283 281 282 280 280 280 280 281 279 278 279 278 278 279 278 276 275 275 275 276 277 277 277 277 278 278 279 279
337 333 331 330 326 325 323 320 315 308 305 301 298 294 290 288 287 286 284 281 281 280 281 283 282 281 281 280 279 280 279 277 276 275 276 277 277 278 279 279 278 278 278
332 330 327 324 321 319 320 318 314 310 306 302 300 300 296 295 292 290 285 281 280 280 279 281 282 281 282 279 278 277 277 277 277 277 277 278 279 279 280 279 279 280 280
328 327 325 320 318 316 316 317 312 311 309 306 302 300 299 297 294 292 291 287 282 280 279 279 282 281 280 280 280 278 277 276 277 278 278 278 280 280 281 281 280 280 281
329 326 324 317 314 315 316 317 317 313 310 308 307 303 299 297 296 293 292 291 288 285 283 281 281 280 279 279 279 279 279 279 279 278 278 279 280 280 280 281 282 282 282
320 321 325 326 319 319 318 316 316 315 312 310 309 306 303 301 299 296 293 292 290 288 286 283 282 282 282 281 280 281 281 279 280 279 279 279 279 279 280 281 282 283 282
321 321 323 323 321 323 325 322 320 317 314 312 311 308 303 301 300 298 295 293 291 290 288 286 286 284 283 283 283 283 283 282 280 279 279 279 279 279 280 281 283 284 283
316 317 319 321 320 320 321 322 321 320 318 317 314 313 308 304 303 302 302 299 295 292 290 289 287 287 286 285 285 284 284 285 284 282 280 279 279 280 281 282 284 284 285
308 310 311 313 315 316 316 317 319 318 316 314 312 312 311 307 305 302 302 301 298 294 291 289 288 287 287 286 285 285 283 283 285 283 281 281 282 282 283 283 283 283 284
302 304 305 306 308 311 312 314 315 316 314 314 313 310 308 306 304 302 300 299 297 295 292 290 289 288 289 287 286 286 285 283 284 284 282 282 282 282 282 282 282 283 283
299 300 301 301 303 306 308 309 311 312 313 313 313 312 309 306 305 303 300 299 297 295 294 291 290 290 290 289 288 287 286 285 285 285 284 282 283 283 283 283 283 282 283
295 296 297 300 301 302 304 307 308 309 310 312 311 311 310 309 306 303 301 299 298 297 295 293 290 289 289 289 288 287 287 287 287 287 287 286 285 285 284 284 284 283 284
292 292 294 296 298 300 301 303 305 307 308 309 309 308 308 307 307 304 301 300 299 299 297 295 292 290 288 288 289 288 288 288 289 289 288 287 286 285 285 286 286 286 286
Height
5890 5891 5891 5892 5893 5893 5894 5895 5896 5896 5897 5897 5898 5899 5899 5900 5900 5901 5901 5902 5902 5902 5903 5903 5904 5904 5904 5904 5904 5904 5904 5904 5905 5905 5905 5905 5905 5905 5905 5904 5904 5904 5904
5890 5890 5891 5891 5892 5893 5894 5894 5895 5896 5896 5897 5898 5898 5899 5899 5900 5900 5901 5901 5901 5902 5902 5902 5903 5903 5903 5903 5903 5903 5903 5903 5903 5903 5904 5904 5903 5903 5903 5903 5903 5902 5902
5890 5890 5891 5891 5891 5892 5893 5894 5894 5895 5896 5896 5897 5898 5898 5899 5899 5899 5900 5900 5901 5901 5901 5901 5901 5901 5901 5901 5901 5901 5901 5901 5901 5902 5902 5902 5902 5901 5901 5901 5901 5901 5900
5889 5889 5890 5890 5891 5891 5892 5893 5894 5894 5895 5896 5896 5897 5897 5898 5898 5898 5899 5899 5899 5900 5900 5900 5900 5900 5900 5900 5899 5899 5899 5899 5899 5899 5899 5899 5899 5899 5899 5899 5898 5898 5898
5888 5888 5889 5889 5890 5891 5891 5892 5893 5893 5894 5895 5895 5896 5896 5896 5897 5897 5897 5897 5898 5898 5898 5898 5898 5898 5898 5898 5897 5897 5897 5897 5897 5897 5897 5897 5897 5897 5896 5896 5896 5895 5895
5887 5887 5888 5888 5889 5889 5890 5891 5891 5892 5893 5893 5894 5894 5894 5894 5895 5895 5895 5895 5895 5895 5896 5896 5896 5896 5896 5895 5895 5895 5895 5894 5894 5894 5894 5894 5894 5894 5893 5893 5893 5892 5892
5887 5886 5887 5887 5888 5888 5889 5890 5890 5890 5891 5891 5892 5892 5892 5892 5892 5892 5892 5892 5893 5893 5893 5893 5893 5893 5893 5893 5893 5892 5892 5892 5891 5891 5891 5891 5891 5891 5890 5890 5889 5889 5888
5887 5886 5886 5887 5887 5887 5888 5888 5888 5889 5889 5889 5890 5890 5890 5891 5890 5890 5890 5890 5890 5889 5889 5889 5889 5890 5890 5889 5889 5889 5889 5888 5888 5888 5888 5887 5887 5887 5887 5886 5886 5885 5885
5887 5887 5887 5886 5886 5886 5886 5887 5887 5887 5887 5887 5887 5887 5887 5887 5887 5888 5887 5887 5886 5886 5886 5886 5886 5886 5885 5885 5885 5885 5885 5885 5884 5884 5884 5883 5883 5883 5882 5882 5881 5881 5880
5887 5887 5887 5886 5886 5885 5885 5885 5885 5885 5885 5885 5884 5884 5884 5884 5884 5884 5884 5884 5883 5882 5882 5882 5882 5881 5881 5881 5881 5881 5881 5880 5880 5880 5880 5879 5878 5878 5877 5877 5876 5876 5875
5888 5887 5886 5886 5885 5884 5884 5883 5883 5882 5882 5882 5881 5881 5881 5880 5880 5880 5880 5880 5879 5878 5878 5878 5877 5877 5877 5877 5876 5876 5876 5876 5876 5875 5875 5874 5874 5873 5872 5872 5871 5871 5870
5888 5887 5886 5885 5884 5883 5883 5882 5881 5880 5879 5878 5878 5877 5877 5877 5876 5876 5876 5875 5875 5874 5874 5873 5873 5873 5872 5872 5872 5871 5871 5871 5870 5870 5869 5869 5868 5867 5867 5866 5866 5865 5864
5888 5887 5885 5884 5883 5882 5881 5880 5878 5877 5876 5876 5875 5874 5874 5873 5873 5872 5872 5871 5870 5869 5869 5869 5868 5868 5867 5867 5866 5866 5865 5865 5865 5864 5864 5863 5863 5862 5861 5860 5860 5859 5858
5887 5886 5885 5883 5882 5880 5879 5877 5876 5875 5874 5873 5872 5871 5870 5869 5868 5868 5867 5866 5866 5865 5864 5864 5863 5863 5862 5861 5861 5860 5859 5859 5859 5858 5858 5857 5856 5855 5855 5854 5853 5852 5851
5887 5885 5884 5882 5881 5879 5877 5875 5874 5872 5871 5870 5869 5868 5867 5865 5864 5863 5862 5861 5861 5861 5860 5859 5858 5857 5856 5855 5855 5854 5853 5853 5852 5852 5851 5850 5849 5848 5848 5847 5846 5845 5844
5885 5884 5882 5880 5879 5877 5876 5874 5872 5870 5869 5867 5866 5864 5863 5861 5860 5859 5857 5856 5856 5855 5855 5854 5852 5851 5850 5849 5848 5848 5847 5846 5846 5845 5844 5843 5842 5841 5840 5839 5838 5837 5836
5883 5881 5880 5878 5877 5875 5873 5871 5869 5867 5865 5864 5862 5861 5859 5857 5856 5854 5852 5851 5850 5849 5849 5848 5846 5845 5844 5843 5842 5841 5840 5840 5839 5838 5837 5836 5835 5834 5833 5832 5831 5830 5829
5881 5879 5877 5875 5873 5872 5870 5868 5866 5864 5862 5860 5858 5856 5854 5853 5851 5849 5848 5846 5845 5843 5843 5842 5840 5839 5838 5837 5836 5835 5834 5833 5832 5831 5830 5829 5828 5827 5826 5824 5823 5822 5821
5877 5876 5874 5872 5870 5869 5867 5865 5863 5861 5858 5856 5854 5852 5850 5848 5846 5844 5843 5841 5839 5838 5836 5835 5834 5833 5831 5830 5829 5828 5827 5826 5825 5824 5823 5822 5821 5820 5818 5817 5816 5814 5813
5874 5873 5871 5869 5867 5866 5864 5862 5860 5857 5855 5852 5850 5848 5846 5844 5841 5839 5837 5835 5833 5832 5830 5829 5828 5826 5825 5823 5822 5821 5819 5818 5818 5816 5815 5814 5813 5812 5811 5809 5808 5806 5805
5872 5870 5868 5866 5864 5862 5860 5858 5856 5854 5851 5848 5846 5843 5841 5838 5836 5834 5832 5829 5827 5825 5824 5822 5821 5820 5818 5816 5815 5814 5812 5811 5810 5809 5807 5806 5805 5804 5803 5801 5800 5799 5797
5867 5866 5864 5862 5860 5858 5856 5854 5852 5849 5847 5844 5841 5838 5836 5833 5831 5828 5826 5824 5822 5819 5817 5816 5814 5812 5811 5809 5807 5806 5805 5804 5802 5801 5799 5798 5797 5796 5794 5793 5791 5790 5789
5863 5861 5859 5858 5856 5853 5851 5849 5847 5844 5841 5838 5836 5833 5830 5827 5824 5822 5820 5817 5815 5813 5811 5809 5807 5805 5803 5801 5800 5798 5797 5796 5794 5793 5791 5790 5788 5787 5786 5784 5782 5781 5779
5857 5855 5854 5852 5850 5848 5846 5843 5841 5838 5835 5833 5830 5827 5824 5821 5818 5815 5813 5811 5808 5806 5803 5801 5800 5798 5796 5794 5792 5791 5789 5788 5787 5785 5783 5781 5780 5778 5776 5775 5773 5771 5770
5850 5848 5847 5845 5844 5842 5840 5837 5835 5832 5829 5826 5824 5821 5818 5814 5812 5808 5806 5803 5801 5798 5796 5794 5792 5790 5788 5786 5784 5783 5781 5780 5778 5776 5774 5773 5771 5769 5767 5765 5763 5761 5760
5842 5841 5839 5838 5837 5835 5833 5830 5828 5825 5822 5820 5817 5814 5811 5808 5804 5802 5799 5796 5794 5791 5789 5786 5784 5782 5780 5778 5776 5775 5773 5771 5769 5767 5765 5763 5761 5759 5757 5756 5754 5752 5749